| time (UTC) | temp F | wind direction | speed MPH | gust MPH | rain 1hr in | rain 24hr in | rain mn in | humidity % | barometer mb |
| 20260902155054 | 72 | 137 | 0.0 | 0.0 | 0.00 | 0.43 | 0.00 | 70 | 1019.9 |
| 20260902154554 | 72 | 139 | 0.0 | 0.0 | 0.00 | 0.43 | 0.00 | 73 | 1019.9 |
| 20260902153555 | 72 | 134 | 0.0 | 0.0 | 0.00 | 0.43 | 0.00 | 73 | 1019.9 |
| 20260902153053 | 71 | 182 | 0.0 | 0.0 | 0.00 | 0.59 | 0.43 | 74 | 1019.9 |
| 20260902152552 | 71 | 220 | 0.0 | 0.0 | 0.00 | 0.59 | 0.43 | 73 | 1020.0 |
| 20260902152051 | 71 | 221 | 0.0 | 0.0 | 0.00 | 0.59 | 0.43 | 72 | 1020.1 |
| 20260902151558 | 70 | 1 | 0.0 | 0.0 | 0.00 | 0.59 | 0.43 | 77 | 1020.0 |
| 20260902151049 | 69 | 345 | 0.0 | 0.0 | 0.00 | 0.59 | 0.43 | 78 | 1019.8 |
| 20260902150548 | 69 | 354 | 0.0 | 0.0 | 0.00 | 0.59 | 0.43 | 76 | 1019.8 |
| 20260902150046 | 69 | 75 | 0.0 | 0.0 | 0.00 | 0.59 | 0.43 | 80 | 1020.0 |
| 20260902145544 | 68 | 355 | 0.0 | 0.0 | 0.00 | 0.59 | 0.43 | 80 | 1020.1 |
| 20260902145044 | 68 | 358 | 0.0 | 0.0 | 0.00 | 0.59 | 0.43 | 85 | 1020.0 |
| 20260902144556 | 67 | 307 | 0.0 | 0.0 | 0.00 | 0.59 | 0.43 | 88 | 1019.9 |
| 20260902143540 | 67 | 357 | 0.0 | 0.0 | 0.00 | 0.59 | 0.43 | 90 | 1019.7 |
| 20260902143039 | 67 | 357 | 0.0 | 0.0 | 0.00 | 0.75 | 0.43 | 92 | 1019.9 |
| 20260902142537 | 66 | 357 | 0.0 | 0.0 | 0.00 | 0.75 | 0.43 | 92 | 1019.9 |
| 20260902142037 | 66 | 349 | 0.0 | 0.0 | 0.00 | 0.75 | 0.43 | 94 | 1019.7 |
| 20260902141539 | 65 | 356 | 0.0 | 0.0 | 0.00 | 0.75 | 0.43 | 95 | 1019.6 |
| 20260902141037 | 65 | 356 | 0.0 | 0.0 | 0.00 | 0.75 | 0.43 | 96 | 1019.5 |
| 20260902140534 | 65 | 347 | 0.0 | 0.0 | 0.00 | 0.75 | 0.43 | 97 | 1019.5 |
| 20260902140133 | 65 | 347 | 0.0 | 0.0 | 0.00 | 0.75 | 0.43 | 97 | 1019.5 |
| 20260902135532 | 65 | 348 | 0.0 | 0.0 | 0.00 | 0.75 | 0.43 | 97 | 1019.3 |
| 20260902135033 | 65 | 3 | 0.0 | 0.0 | 0.00 | 0.75 | 0.43 | 97 | 1019.4 |
| 20260902134535 | 64 | 323 | 0.0 | 0.0 | 0.00 | 0.75 | 0.43 | 97 | 1019.3 |
| 20260902133532 | 64 | 358 | 0.0 | 0.0 | 0.00 | 0.75 | 0.43 | 98 | 1019.1 |
| 20260902133032 | 65 | 351 | 0.0 | 0.0 | 0.00 | 0.80 | 0.43 | 98 | 1019.1 |
| 20260902132532 | 64 | 347 | 0.0 | 0.0 | 0.00 | 0.80 | 0.43 | 98 | 1019.0 |
| 20260902132030 | 64 | 340 | 0.0 | 0.0 | 0.00 | 0.80 | 0.43 | 98 | 1018.9 |
| 20260902131530 | 64 | 341 | 0.0 | 0.0 | 0.00 | 0.80 | 0.43 | 98 | 1019.1 |
| 20260902131032 | 64 | 248 | 0.0 | 0.0 | 0.00 | 0.80 | 0.43 | 98 | 1019.2 |
| 20260902130530 | 64 | 328 | 0.0 | 0.0 | 0.00 | 0.80 | 0.43 | 98 | 1019.1 |
| 20260902130036 | 64 | 323 | 0.0 | 0.0 | 0.00 | 0.80 | 0.43 | 98 | 1019.1 |
| 20260902125533 | 64 | 302 | 0.0 | 0.0 | 0.00 | 0.80 | 0.43 | 98 | 1019.3 |
| 20260902125029 | 64 | 302 | 0.0 | 0.0 | 0.00 | 0.80 | 0.43 | 98 | 1019.4 |
| 20260902124532 | 63 | 321 | 0.0 | 0.0 | 0.00 | 0.80 | 0.43 | 98 | 1019.3 |
| 20260902123534 | 63 | 322 | 0.0 | 0.0 | 0.00 | 0.80 | 0.43 | 98 | 1019.4 |
| 20260902123035 | 63 | 321 | 0.0 | 0.0 | 0.00 | 0.80 | 0.43 | 98 | 1019.4 |
| 20260902122534 | 63 | 321 | 0.0 | 0.0 | 0.00 | 0.80 | 0.43 | 98 | 1019.3 |
| 20260902122034 | 63 | 321 | 0.0 | 0.0 | 0.00 | 0.80 | 0.43 | 98 | 1019.4 |
| 20260902121535 | 63 | 321 | 0.0 | 0.0 | 0.00 | 0.80 | 0.43 | 98 | 1019.4 |
| 20260902121034 | 63 | 322 | 0.0 | 0.0 | 0.00 | 0.80 | 0.43 | 98 | 1019.5 |
| 20260902120533 | 62 | 321 | 0.0 | 0.0 | 0.00 | 0.80 | 0.43 | 98 | 1019.6 |
| 20260902120032 | 62 | 321 | 0.0 | 0.0 | 0.00 | 0.80 | 0.43 | 98 | 1019.6 |
| 20260902115533 | 62 | 321 | 0.0 | 0.0 | 0.00 | 0.80 | 0.43 | 98 | 1019.6 |
| 20260902115032 | 62 | 321 | 0.0 | 0.0 | 0.00 | 0.80 | 0.43 | 98 | 1019.7 |
| 20260902114535 | 61 | 321 | 0.0 | 0.0 | 0.00 | 0.80 | 0.43 | 98 | 1019.7 |
| 20260902113537 | 61 | 321 | 0.0 | 0.0 | 0.00 | 0.80 | 0.43 | 98 | 1019.7 |
| 20260902113044 | 61 | 321 | 0.0 | 0.0 | 0.00 | 0.80 | 0.43 | 98 | 1019.7 |
| 20260902112536 | 61 | 321 | 0.0 | 0.0 | 0.00 | 0.80 | 0.43 | 98 | 1019.6 |
| 20260902112035 | 61 | 321 | 0.0 | 0.0 | 0.00 | 0.80 | 0.43 | 98 | 1019.5 |
| 20260902111542 | 60 | 321 | 0.0 | 0.0 | 0.00 | 0.80 | 0.43 | 98 | 1019.5 |
| 20260902111034 | 60 | 321 | 0.0 | 0.0 | 0.00 | 0.80 | 0.43 | 98 | 1019.4 |
| 20260902110534 | 60 | 321 | 0.0 | 0.0 | 0.00 | 0.80 | 0.43 | 98 | 1019.5 |
| 20260902110033 | 60 | 321 | 0.0 | 0.0 | 0.00 | 0.80 | 0.43 | 98 | 1019.5 |
| 20260902105533 | 60 | 321 | 0.0 | 0.0 | 0.00 | 0.80 | 0.43 | 98 | 1019.3 |
| 20260902105033 | 59 | 321 | 0.0 | 0.0 | 0.00 | 0.80 | 0.43 | 98 | 1019.2 |
| 20260902104539 | 59 | 321 | 0.0 | 0.0 | 0.00 | 0.80 | 0.43 | 98 | 1019.2 |
| 20260902103524 | 59 | 321 | 0.0 | 0.0 | 0.00 | 0.80 | 0.43 | 98 | 1019.1 |
| 20260902103021 | 59 | 321 | 0.0 | 0.0 | 0.00 | 0.80 | 0.43 | 98 | 1019.0 |
| 20260902102520 | 59 | 321 | 0.0 | 0.0 | 0.00 | 0.80 | 0.43 | 98 | 1019.0 |
| 20260902102020 | 59 | 321 | 0.0 | 0.0 | 0.00 | 0.80 | 0.43 | 98 | 1018.9 |
| 20260902101528 | 59 | 321 | 0.0 | 0.0 | 0.00 | 0.80 | 0.43 | 98 | 1018.8 |
| 20260902101019 | 59 | 321 | 0.0 | 0.0 | 0.00 | 0.80 | 0.43 | 98 | 1018.7 |
| 20260902100520 | 59 | 321 | 0.0 | 0.0 | 0.00 | 0.80 | 0.43 | 98 | 1018.8 |
| 20260902100020 | 59 | 321 | 0.0 | 0.0 | 0.00 | 0.80 | 0.43 | 98 | 1018.7 |
| 20260902095520 | 59 | 321 | 0.0 | 0.0 | 0.00 | 0.80 | 0.43 | 98 | 1018.6 |
| 20260902095018 | 59 | 321 | 0.0 | 0.0 | 0.00 | 0.80 | 0.43 | 98 | 1018.7 |
| 20260902094518 | 59 | 321 | 0.0 | 0.0 | 0.00 | 0.80 | 0.43 | 98 | 1018.5 |
| 20260902093517 | 59 | 321 | 0.0 | 0.0 | 0.00 | 0.80 | 0.43 | 98 | 1018.6 |
| 20260902093023 | 59 | 321 | 0.0 | 0.0 | 0.00 | 0.80 | 0.43 | 98 | 1018.5 |
| 20260902092522 | 59 | 321 | 0.0 | 0.0 | 0.00 | 0.80 | 0.43 | 98 | 1018.4 |
| 20260902092016 | 59 | 321 | 0.0 | 0.0 | 0.00 | 0.80 | 0.43 | 98 | 1018.5 |
| 20260902091516 | 59 | 321 | 0.0 | 0.0 | 0.00 | 0.80 | 0.43 | 98 | 1018.5 |
| 20260902091016 | 59 | 321 | 0.0 | 0.0 | 0.00 | 0.80 | 0.43 | 98 | 1018.3 |
| 20260902090516 | 59 | 321 | 0.0 | 0.0 | 0.00 | 0.80 | 0.43 | 98 | 1018.3 |
| 20260902090017 | 59 | 321 | 0.0 | 0.0 | 0.00 | 0.80 | 0.43 | 98 | 1018.2 |
| 20260902085516 | 59 | 321 | 0.0 | 0.0 | 0.00 | 0.80 | 0.43 | 98 | 1018.3 |
| 20260902085015 | 59 | 321 | 0.0 | 0.0 | 0.00 | 0.80 | 0.43 | 98 | 1018.4 |
| 20260902084515 | 59 | 321 | 0.0 | 0.0 | 0.00 | 0.80 | 0.43 | 98 | 1018.4 |
| 20260902083517 | 59 | 321 | 0.0 | 0.0 | 0.00 | 0.80 | 0.43 | 98 | 1018.4 |
| 20260902083016 | 59 | 321 | 0.0 | 0.0 | 0.00 | 0.80 | 0.43 | 98 | 1018.4 |
| 20260902082518 | 59 | 321 | 0.0 | 0.0 | 0.00 | 0.80 | 0.43 | 98 | 1018.4 |
| 20260902082020 | 59 | 321 | 0.0 | 0.0 | 0.00 | 0.80 | 0.43 | 97 | 1018.3 |
| 20260902081515 | 59 | 321 | 0.0 | 0.0 | 0.00 | 0.80 | 0.43 | 97 | 1018.2 |
| 20260902081014 | 59 | 321 | 0.0 | 0.0 | 0.00 | 0.80 | 0.43 | 97 | 1018.3 |
| 20260902080514 | 59 | 321 | 0.0 | 0.0 | 0.00 | 0.80 | 0.43 | 97 | 1018.2 |
| 20260902080014 | 59 | 321 | 0.0 | 0.0 | 0.00 | 0.80 | 0.43 | 97 | 1018.2 |
| 20260902075514 | 60 | 321 | 0.0 | 0.0 | 0.00 | 0.80 | 0.43 | 98 | 1018.3 |
| 20260902075013 | 60 | 321 | 0.0 | 0.0 | 0.00 | 0.80 | 0.43 | 98 | 1018.4 |
| 20260902074513 | 60 | 321 | 0.0 | 0.0 | 0.00 | 0.80 | 0.43 | 98 | 1018.3 |
| 20260902073510 | 60 | 321 | 0.0 | 0.0 | 0.00 | 0.80 | 0.43 | 98 | 1018.4 |
| 20260902073010 | 60 | 321 | 0.0 | 0.0 | 0.00 | 0.80 | 0.43 | 98 | 1018.4 |
| 20260902072510 | 60 | 321 | 0.0 | 0.0 | 0.00 | 0.80 | 0.43 | 98 | 1018.3 |
| 20260902072013 | 60 | 321 | 0.0 | 0.0 | 0.00 | 0.80 | 0.43 | 98 | 1018.3 |
| 20260902071509 | 60 | 321 | 0.0 | 0.0 | 0.00 | 0.80 | 0.43 | 98 | 1018.1 |
| 20260902071009 | 60 | 321 | 0.0 | 0.0 | 0.00 | 0.80 | 0.43 | 98 | 1018.2 |
| 20260902070508 | 60 | 227 | 0.0 | 0.0 | 0.00 | 0.80 | 0.43 | 98 | 1018.1 |
| 20260902070008 | 60 | 227 | 0.0 | 0.0 | 0.00 | 0.80 | 0.43 | 98 | 1018.0 |
| 20260902065512 | 60 | 227 | 0.0 | 0.0 | 0.00 | 0.80 | 0.43 | 98 | 1018.1 |
| 20260902065009 | 60 | 227 | 0.0 | 0.0 | 0.00 | 0.80 | 0.43 | 98 | 1018.1 |
| 20260902064507 | 60 | 227 | 0.0 | 0.0 | 0.00 | 0.80 | 0.43 | 98 | 1017.9 |
| 20260902063510 | 60 | 227 | 0.0 | 0.0 | 0.00 | 0.80 | 0.43 | 98 | 1018.0 |
| 20260902063007 | 60 | 227 | 0.0 | 0.0 | 0.00 | 0.80 | 0.43 | 98 | 1017.9 |
| 20260902062509 | 60 | 227 | 0.0 | 0.0 | 0.00 | 0.80 | 0.43 | 98 | 1018.1 |
| 20260902062006 | 60 | 227 | 0.0 | 0.0 | 0.00 | 0.80 | 0.43 | 98 | 1017.9 |
| 20260902061509 | 60 | 227 | 0.0 | 0.0 | 0.00 | 0.80 | 0.43 | 98 | 1017.9 |
| 20260902061006 | 60 | 227 | 0.0 | 0.0 | 0.00 | 0.80 | 0.43 | 98 | 1017.9 |
| 20260902060505 | 60 | 227 | 0.0 | 0.0 | 0.00 | 0.80 | 0.43 | 98 | 1017.9 |
| 20260902060006 | 60 | 227 | 0.0 | 0.0 | 0.00 | 0.80 | 0.43 | 97 | 1017.9 |
| 20260902055506 | 60 | 227 | 0.0 | 0.0 | 0.00 | 0.80 | 0.43 | 98 | 1017.9 |
| 20260902055005 | 60 | 227 | 0.0 | 0.0 | 0.00 | 0.80 | 0.43 | 98 | 1017.9 |
| 20260902054505 | 60 | 227 | 0.0 | 0.0 | 0.00 | 0.80 | 0.43 | 98 | 1017.8 |
| 20260902053505 | 60 | 227 | 0.0 | 0.0 | 0.00 | 0.80 | 0.43 | 98 | 1017.8 |
| 20260902053007 | 60 | 227 | 0.0 | 0.0 | 0.00 | 0.80 | 0.43 | 98 | 1017.7 |
| 20260902052511 | 60 | 226 | 0.0 | 0.0 | 0.00 | 0.80 | 0.43 | 98 | 1017.8 |
| 20260902052006 | 60 | 225 | 0.0 | 0.0 | 0.00 | 0.80 | 0.43 | 98 | 1017.8 |
| 20260902051505 | 60 | 225 | 0.0 | 0.0 | 0.00 | 0.80 | 0.43 | 98 | 1017.7 |
| 20260902051008 | 60 | 225 | 0.0 | 0.0 | 0.00 | 0.80 | 0.43 | 98 | 1017.6 |
| 20260902050507 | 60 | 225 | 0.0 | 0.0 | 0.00 | 0.80 | 0.43 | 98 | 1017.4 |
| 20260902050009 | 60 | 225 | 0.0 | 0.0 | 0.00 | 0.80 | 0.43 | 98 | 1017.6 |
| 20260902045503 | 60 | 225 | 0.0 | 0.0 | 0.00 | 0.80 | 0.43 | 98 | 1017.7 |
| 20260902045003 | 60 | 225 | 0.0 | 0.0 | 0.00 | 0.80 | 0.43 | 97 | 1017.7 |
| 20260902044504 | 60 | 225 | 0.0 | 0.0 | 0.00 | 0.80 | 0.43 | 97 | 1017.7 |
| 20260902043501 | 60 | 225 | 0.0 | 0.0 | 0.00 | 0.80 | 0.43 | 97 | 1017.7 |
| 20260902043002 | 60 | 225 | 0.0 | 0.0 | 0.00 | 0.80 | 0.43 | 97 | 1017.7 |
| 20260902042501 | 60 | 225 | 0.0 | 0.0 | 0.00 | 0.80 | 0.43 | 97 | 1017.8 |
| 20260902042100 | 60 | 225 | 0.0 | 0.0 | 0.00 | 0.80 | 0.43 | 97 | 1017.6 |
| 20260902041601 | 60 | 225 | 0.0 | 0.0 | 0.00 | 0.80 | 0.43 | 97 | 1017.4 |
| 20260902041059 | 60 | 225 | 0.0 | 0.0 | 0.00 | 0.80 | 0.43 | 97 | 1017.4 |
| 20260902040559 | 60 | 225 | 0.0 | 0.0 | 0.00 | 0.80 | 0.43 | 97 | 1017.3 |
| 20260902040059 | 60 | 225 | 0.0 | 0.0 | 0.00 | 0.80 | 0.43 | 97 | 1017.3 |
| 20260902035558 | 60 | 225 | 0.0 | 0.0 | 0.00 | 0.80 | 0.43 | 97 | 1017.2 |
| 20260902035058 | 60 | 225 | 0.0 | 0.0 | 0.00 | 0.80 | 0.43 | 97 | 1017.2 |
| 20260902034603 | 60 | 225 | 0.0 | 0.0 | 0.00 | 0.80 | 0.43 | 97 | 1017.2 |
| 20260902033500 | 60 | 225 | 0.0 | 0.0 | 0.00 | 0.80 | 0.43 | 97 | 1017.1 |
| 20260902033001 | 60 | 225 | 0.0 | 0.0 | 0.00 | 0.80 | 0.43 | 97 | 1017.2 |
| 20260902032601 | 61 | 225 | 0.0 | 0.0 | 0.00 | 0.80 | 0.43 | 97 | 1017.1 |
| 20260902032100 | 60 | 225 | 0.0 | 0.0 | 0.00 | 0.80 | 0.43 | 97 | 1017.1 |
| 20260902031600 | 60 | 225 | 0.0 | 0.0 | 0.00 | 0.80 | 0.43 | 97 | 1017.1 |
| 20260902031100 | 61 | 225 | 0.0 | 0.0 | 0.00 | 0.80 | 0.43 | 97 | 1017.1 |
| 20260902030602 | 60 | 225 | 0.0 | 0.0 | 0.00 | 0.80 | 0.43 | 97 | 1017.2 |
| 20260902030058 | 61 | 225 | 0.0 | 0.0 | 0.00 | 0.80 | 0.43 | 97 | 1017.1 |
| 20260902025558 | 60 | 225 | 0.0 | 0.0 | 0.00 | 0.80 | 0.43 | 97 | 1017.1 |
| 20260902025058 | 60 | 225 | 0.0 | 0.0 | 0.00 | 0.80 | 0.43 | 97 | 1017.1 |
| 20260902024607 | 60 | 225 | 0.0 | 0.0 | 0.00 | 0.80 | 0.43 | 97 | 1017.0 |
| 20260902023555 | 60 | 225 | 0.0 | 0.0 | 0.00 | 0.80 | 0.43 | 97 | 1016.9 |
| 20260902023055 | 60 | 225 | 0.0 | 0.0 | 0.00 | 0.80 | 0.43 | 97 | 1016.9 |
| 20260902022557 | 60 | 225 | 0.0 | 0.0 | 0.00 | 0.80 | 0.43 | 97 | 1017.0 |
| 20260902022054 | 60 | 225 | 0.0 | 0.0 | 0.00 | 0.80 | 0.43 | 97 | 1017.0 |
| 20260902021611 | 60 | 225 | 0.0 | 0.0 | 0.00 | 0.80 | 0.43 | 97 | 1016.9 |
| 20260902021054 | 60 | 225 | 0.0 | 0.0 | 0.00 | 0.80 | 0.43 | 97 | 1016.7 |
| 20260902020554 | 60 | 226 | 0.0 | 0.0 | 0.00 | 0.80 | 0.43 | 97 | 1016.7 |
| 20260902020055 | 60 | 225 | 0.0 | 0.0 | 0.00 | 0.80 | 0.43 | 97 | 1016.9 |
| 20260902015554 | 60 | 225 | 0.0 | 0.0 | 0.00 | 0.80 | 0.43 | 97 | 1016.9 |
| 20260902015054 | 60 | 225 | 0.0 | 0.0 | 0.00 | 0.80 | 0.43 | 97 | 1016.9 |
| 20260902014554 | 60 | 225 | 0.0 | 0.0 | 0.00 | 0.80 | 0.43 | 97 | 1017.0 |
| 20260902013552 | 60 | 225 | 0.0 | 0.0 | 0.00 | 0.80 | 0.43 | 97 | 1016.6 |
| 20260902013100 | 60 | 226 | 0.0 | 0.0 | 0.00 | 0.80 | 0.43 | 97 | 1016.6 |
| 20260902012553 | 60 | 225 | 0.0 | 0.0 | 0.00 | 0.80 | 0.43 | 97 | 1016.6 |
| 20260902012052 | 60 | 226 | 0.0 | 0.0 | 0.00 | 0.80 | 0.43 | 97 | 1016.7 |
| 20260902011553 | 60 | 225 | 0.0 | 0.0 | 0.00 | 0.80 | 0.43 | 97 | 1016.8 |
| 20260902011052 | 60 | 225 | 0.0 | 0.0 | 0.00 | 0.80 | 0.43 | 97 | 1016.8 |
| 20260902010552 | 60 | 225 | 0.0 | 0.0 | 0.00 | 0.80 | 0.43 | 97 | 1016.8 |
| 20260902010056 | 60 | 225 | 0.0 | 0.0 | 0.00 | 0.80 | 0.43 | 97 | 1016.7 |
| 20260902005551 | 60 | 225 | 0.0 | 0.0 | 0.00 | 0.80 | 0.43 | 97 | 1016.7 |
| 20260902005051 | 60 | 225 | 0.0 | 0.0 | 0.00 | 0.80 | 0.43 | 97 | 1016.6 |
| 20260902004550 | 60 | 225 | 0.0 | 0.0 | 0.00 | 0.80 | 0.43 | 97 | 1016.6 |
| 20260902003514 | 60 | 226 | 0.0 | 0.0 | 0.00 | 0.80 | 0.43 | 97 | 1016.8 |
| 20260902003014 | 60 | 225 | 0.0 | 0.0 | 0.00 | 0.80 | 0.43 | 97 | 1016.7 |
| 20260902002514 | 61 | 225 | 0.0 | 0.0 | 0.00 | 0.80 | 0.43 | 97 | 1016.7 |
| 20260902002013 | 61 | 225 | 0.0 | 0.0 | 0.00 | 0.80 | 0.43 | 97 | 1016.7 |
| 20260902001514 | 61 | 225 | 0.0 | 0.0 | 0.00 | 0.80 | 0.43 | 97 | 1016.6 |
| 20260902001012 | 61 | 225 | 0.0 | 0.0 | 0.00 | 0.80 | 0.43 | 97 | 1016.7 |
| 20260902000512 | 60 | 225 | 0.0 | 0.0 | 0.00 | 0.80 | 0.43 | 97 | 1016.7 |
| 20260902000016 | 61 | 225 | 0.0 | 0.0 | 0.00 | 0.80 | 0.43 | 97 | 1016.6 |
| 20260901235511 | 60 | 225 | 0.0 | 0.0 | 0.00 | 0.80 | 0.43 | 97 | 1016.4 |
| 20260901235012 | 60 | 226 | 0.0 | 0.0 | 0.00 | 0.80 | 0.43 | 97 | 1016.5 |
| 20260901234511 | 61 | 225 | 0.0 | 0.0 | 0.00 | 0.80 | 0.43 | 97 | 1016.4 |
| 20260901233600 | 61 | 217 | 0.0 | 0.0 | 0.00 | 0.80 | 0.43 | 97 | 1016.2 |
| 20260901233056 | 61 | 217 | 0.0 | 0.0 | 0.00 | 0.80 | 0.43 | 97 | 1016.2 |
| 20260901232556 | 61 | 217 | 0.0 | 0.0 | 0.00 | 0.80 | 0.43 | 97 | 1016.2 |
| 20260901232056 | 60 | 217 | 0.0 | 0.0 | 0.00 | 0.80 | 0.43 | 97 | 1016.3 |
| 20260901231558 | 60 | 217 | 0.0 | 0.0 | 0.00 | 0.80 | 0.43 | 97 | 1016.4 |
| 20260901231055 | 60 | 217 | 0.0 | 0.0 | 0.00 | 0.80 | 0.43 | 97 | 1016.5 |
| 20260901230554 | 60 | 217 | 0.0 | 0.0 | 0.01 | 0.80 | 0.43 | 97 | 1016.4 |
| 20260901230056 | 60 | 217 | 0.0 | 0.0 | 0.01 | 0.80 | 0.43 | 97 | 1016.4 |
| 20260901225554 | 60 | 217 | 0.0 | 0.0 | 0.01 | 0.80 | 0.43 | 97 | 1016.4 |
| 20260901225053 | 60 | 217 | 0.0 | 0.0 | 0.01 | 0.80 | 0.43 | 97 | 1016.3 |
| 20260901224558 | 60 | 211 | 0.0 | 0.0 | 0.01 | 0.80 | 0.43 | 97 | 1016.2 |
| 20260901223546 | 60 | 211 | 0.0 | 0.0 | 0.01 | 0.80 | 0.43 | 97 | 1016.2 |
| 20260901223048 | 60 | 211 | 0.0 | 0.0 | 0.01 | 0.80 | 0.43 | 97 | 1016.3 |
| 20260901222545 | 60 | 211 | 0.0 | 0.0 | 0.01 | 0.80 | 0.43 | 97 | 1016.3 |
| 20260901222045 | 60 | 211 | 0.0 | 0.0 | 0.01 | 0.80 | 0.43 | 97 | 1016.4 |
| 20260901221546 | 60 | 211 | 0.0 | 0.0 | 0.01 | 0.80 | 0.43 | 97 | 1016.4 |
| 20260901221046 | 60 | 211 | 0.0 | 0.0 | 0.01 | 0.80 | 0.43 | 97 | 1016.4 |
| 20260901220546 | 60 | 211 | 0.0 | 0.0 | 0.01 | 0.79 | 0.42 | 97 | 1016.4 |
| 20260901220046 | 60 | 211 | 0.0 | 0.0 | 0.01 | 0.79 | 0.42 | 97 | 1016.4 |
| 20260901215545 | 60 | 210 | 0.0 | 0.0 | 0.02 | 0.79 | 0.42 | 97 | 1016.4 |
| 20260901215046 | 60 | 210 | 0.0 | 0.0 | 0.02 | 0.79 | 0.42 | 97 | 1016.4 |
| 20260901214548 | 60 | 210 | 0.0 | 0.0 | 0.03 | 0.79 | 0.42 | 97 | 1016.5 |
| 20260901213548 | 60 | 210 | 0.0 | 0.0 | 0.04 | 0.79 | 0.42 | 97 | 1016.4 |
| 20260901213045 | 60 | 210 | 0.0 | 0.0 | 0.05 | 0.79 | 0.42 | 97 | 1016.3 |
| 20260901212544 | 60 | 354 | 0.0 | 0.0 | 0.06 | 0.79 | 0.42 | 96 | 1016.3 |
| 20260901212044 | 59 | 354 | 0.0 | 0.0 | 0.07 | 0.79 | 0.42 | 96 | 1016.4 |
| 20260901211544 | 59 | 354 | 0.0 | 0.0 | 0.08 | 0.79 | 0.42 | 96 | 1016.3 |
| 20260901211044 | 59 | 354 | 0.0 | 0.0 | 0.08 | 0.79 | 0.42 | 96 | 1016.3 |
| 20260901210543 | 59 | 354 | 0.0 | 0.0 | 0.08 | 0.78 | 0.41 | 96 | 1016.3 |
| 20260901210042 | 60 | 354 | 0.0 | 0.0 | 0.08 | 0.78 | 0.41 | 96 | 1016.3 |
| 20260901205541 | 60 | 354 | 0.0 | 0.0 | 0.08 | 0.78 | 0.41 | 96 | 1016.3 |
| 20260901205040 | 60 | 354 | 0.0 | 0.0 | 0.07 | 0.77 | 0.40 | 96 | 1016.2 |
| 20260901204539 | 60 | 355 | 0.0 | 0.0 | 0.07 | 0.76 | 0.39 | 96 | 1016.1 |
| 20260901203537 | 60 | 354 | 0.0 | 0.0 | 0.06 | 0.75 | 0.38 | 96 | 1016.1 |
| 20260901203042 | 61 | 355 | 0.0 | 0.0 | 0.05 | 0.74 | 0.37 | 96 | 1016.1 |
| 20260901202536 | 61 | 355 | 0.0 | 0.0 | 0.04 | 0.73 | 0.36 | 96 | 1016.1 |
| 20260901202038 | 61 | 355 | 0.0 | 0.0 | 0.04 | 0.73 | 0.36 | 96 | 1016.0 |
| 20260901201536 | 61 | 355 | 0.0 | 0.0 | 0.03 | 0.72 | 0.35 | 96 | 1016.0 |
| 20260901201034 | 61 | 355 | 0.0 | 0.0 | 0.02 | 0.71 | 0.34 | 96 | 1016.0 |
| 20260901200537 | 61 | 355 | 0.0 | 0.0 | 0.02 | 0.71 | 0.34 | 96 | 1016.0 |
| 20260901200049 | 61 | 355 | 0.0 | 0.0 | 0.01 | 0.70 | 0.33 | 96 | 1016.0 |
| 20260901195535 | 61 | 355 | 0.0 | 0.0 | 0.01 | 0.70 | 0.33 | 96 | 1015.8 |
| 20260901195035 | 61 | 355 | 0.0 | 0.0 | 0.01 | 0.70 | 0.33 | 96 | 1015.8 |
| 20260901194544 | 61 | 359 | 0.0 | 0.0 | 0.00 | 0.69 | 0.32 | 96 | 1015.8 |
| 20260901193538 | 61 | 359 | 0.0 | 0.0 | 0.00 | 0.69 | 0.32 | 96 | 1015.8 |
| 20260901193035 | 61 | 359 | 0.0 | 0.0 | 0.00 | 0.69 | 0.32 | 96 | 1015.9 |
| 20260901192535 | 62 | 6 | 0.0 | 0.0 | 0.00 | 0.69 | 0.32 | 96 | 1015.7 |
| 20260901192035 | 62 | 6 | 0.0 | 0.0 | 0.00 | 0.69 | 0.32 | 96 | 1015.5 |
| 20260901191541 | 62 | 6 | 0.0 | 0.0 | 0.01 | 0.69 | 0.32 | 96 | 1015.5 |
| 20260901191035 | 62 | 6 | 0.0 | 0.0 | 0.01 | 0.69 | 0.32 | 96 | 1015.5 |
| 20260901190534 | 62 | 6 | 0.0 | 0.0 | 0.04 | 0.69 | 0.32 | 96 | 1015.5 |
| 20260901190042 | 62 | 6 | 0.0 | 0.0 | 0.06 | 0.69 | 0.32 | 96 | 1015.4 |
| 20260901185534 | 62 | 6 | 0.0 | 0.0 | 0.09 | 0.69 | 0.32 | 96 | 1015.4 |
| 20260901185034 | 62 | 6 | 0.0 | 0.0 | 0.13 | 0.69 | 0.32 | 96 | 1015.5 |
| 20260901184540 | 62 | 1 | 0.0 | 0.0 | 0.19 | 0.69 | 0.32 | 96 | 1015.4 |
| 20260901183535 | 62 | 1 | 0.0 | 0.0 | 0.21 | 0.69 | 0.32 | 96 | 1015.4 |
| 20260901183036 | 62 | 46 | 0.0 | 0.0 | 0.23 | 0.69 | 0.32 | 96 | 1015.3 |
| 20260901182537 | 62 | 46 | 0.0 | 0.0 | 0.23 | 0.69 | 0.32 | 96 | 1015.4 |
| 20260901182036 | 62 | 46 | 0.0 | 0.0 | 0.23 | 0.69 | 0.32 | 96 | 1015.4 |
| 20260901181536 | 62 | 56 | 0.0 | 0.0 | 0.22 | 0.68 | 0.31 | 96 | 1015.2 |
| 20260901181035 | 61 | 56 | 0.0 | 0.0 | 0.22 | 0.68 | 0.31 | 96 | 1015.2 |
| 20260901180535 | 61 | 56 | 0.0 | 0.0 | 0.21 | 0.67 | 0.30 | 96 | 1015.3 |
| 20260901180035 | 61 | 56 | 0.0 | 0.0 | 0.19 | 0.65 | 0.28 | 96 | 1015.3 |
| 20260901175538 | 61 | 77 | 0.0 | 0.0 | 0.16 | 0.62 | 0.25 | 96 | 1015.1 |
| 20260901175034 | 61 | 352 | 0.0 | 0.0 | 0.13 | 0.59 | 0.22 | 96 | 1015.5 |
| 20260901174539 | 61 | 347 | 0.0 | 0.0 | 0.05 | 0.51 | 0.14 | 96 | 1016.0 |
| 20260901173530 | 61 | 1 | 0.0 | 0.0 | 0.04 | 0.49 | 0.12 | 96 | 1015.8 |
| 20260901173034 | 61 | 1 | 0.0 | 0.0 | 0.02 | 0.47 | 0.10 | 96 | 1015.7 |
| 20260901172529 | 61 | 1 | 0.0 | 0.0 | 0.02 | 0.46 | 0.09 | 95 | 1015.5 |
| 20260901172030 | 61 | 1 | 0.0 | 0.0 | 0.02 | 0.46 | 0.09 | 96 | 1015.5 |
| 20260901171528 | 61 | 59 | 0.0 | 0.0 | 0.03 | 0.46 | 0.09 | 96 | 1015.4 |
| 20260901171029 | 61 | 59 | 0.0 | 0.0 | 0.04 | 0.46 | 0.09 | 95 | 1015.4 |
| 20260901170528 | 61 | 59 | 0.0 | 0.0 | 0.04 | 0.46 | 0.09 | 95 | 1015.4 |
| 20260901170027 | 61 | 62 | 0.0 | 0.0 | 0.05 | 0.46 | 0.09 | 95 | 1015.6 |
| 20260901165527 | 61 | 9 | 0.0 | 0.0 | 0.06 | 0.46 | 0.09 | 95 | 1015.5 |
| 20260901165031 | 61 | 358 | 0.0 | 0.0 | 0.07 | 0.46 | 0.09 | 95 | 1015.5 |
| 20260901164526 | 61 | 42 | 0.0 | 0.0 | 0.09 | 0.46 | 0.09 | 95 | 1015.5 |
| 20260901163524 | 62 | 78 | 0.0 | 0.0 | 0.10 | 0.46 | 0.09 | 95 | 1015.5 |
| 20260901163028 | 62 | 64 | 0.0 | 0.0 | 0.09 | 0.45 | 0.08 | 95 | 1015.5 |
| 20260901162523 | 62 | 334 | 0.0 | 0.0 | 0.10 | 0.45 | 0.08 | 95 | 1015.5 |
| 20260901162023 | 62 | 124 | 0.0 | 0.0 | 0.10 | 0.44 | 0.07 | 95 | 1015.5 |
| 20260901161524 | 62 | 63 | 0.0 | 0.0 | 0.09 | 0.43 | 0.06 | 94 | 1015.5 |
| 20260901161021 | 62 | 75 | 0.0 | 0.0 | 0.11 | 0.43 | 0.06 | 94 | 1015.6 |
| 20260901160521 | 62 | 70 | 0.0 | 0.0 | 0.10 | 0.42 | 0.05 | 94 | 1015.5 |
| 20260901160021 | 62 | 70 | 0.0 | 0.0 | 0.11 | 0.42 | 0.05 | 94 | 1015.7 |
| 20260901155518 | 63 | 27 | 0.0 | 0.0 | 0.12 | 0.41 | 0.04 | 94 | 1015.8 |